Wind_Speed
102 100 99 97 95 94 92 90 90 90 89 88 87 86 86 87 87 88 88 88 89 89 89 89 89 89 89 89 89 89 89 89 90 90 90 90 90 91 91 91 91 91 91 92 92 92 92 91 91 91 90 90 90 90 90 90 90 90 90 90 90 90 90 90 90 90 91 92 93 95 96 96 96 96 96 96 95 95 94 94 94 93 91 89 86 85
99 98 96 95 93 92 90 89 88 88 88 87 85 85 84 84 84 85 85 86 87 87 87 87 87 87 87 87 87 87 87 87 87 87 87 87 87 87 88 87 88 88 88 88 88 88 88 88 88 87 87 87 87 86 86 87 87 87 87 87 87 88 88 88 88 87 88 89 90 92 93 94 94 94 94 95 95 94 94 94 93 92 89 87 85 84
97 96 94 92 91 90 89 87 87 86 86 86 85 84 83 82 82 82 83 84 85 85 86 86 86 86 86 86 85 85 85 85 85 84 84 84 84 84 84 84 84 84 85 85 85 85 85 84 84 84 84 83 83 83 83 83 84 84 84 84 85 85 86 86 86 85 85 86 87 89 90 91 92 92 93 93 93 94 94 94 92 90 88 85 83 83
95 93 92 90 89 88 87 87 86 85 85 85 84 83 82 81 81 81 81 82 83 83 84 84 84 84 84 84 84 83 83 83 83 82 82 82 82 82 82 82 82 81 82 82 82 81 81 81 81 81 80 80 80 80 80 80 80 81 81 82 82 83 83 83 83 83 83 84 85 86 87 88 89 90 91 91 92 92 93 93 91 89 86 83 82 82
92 91 90 88 87 86 86 85 85 85 84 84 83 83 82 81 80 80 80 80 81 82 82 83 83 83 83 82 82 82 81 81 80 80 79 79 79 79 79 79 79 79 79 79 79 79 78 78 78 78 78 77 77 77 77 77 77 78 78 79 80 80 81 81 81 81 81 81 82 83 84 85 86 87 88 89 90 91 91 91 90 87 85 82 82 82
90 89 88 87 86 85 85 84 84 83 83 83 82 82 81 80 80 79 78 79 79 80 80 81 81 81 81 81 80 80 79 79 79 78 77 77 77 77 77 77 77 76 76 76 76 76 76 76 75 75 75 75 75 75 75 75 75 75 76 77 77 78 78 79 79 79 79 79 79 80 81 82 83 84 85 87 88 89 89 89 88 86 83 82 81 82
89 87 86 86 85 84 84 84 83 83 82 81 81 80 80 79 79 78 78 77 77 78 79 79 80 80 79 79 78 78 77 77 76 76 75 75 75 75 75 75 74 74 74 73 73 73 73 73 73 73 73 73 73 73 73 73 73 73 73 74 75 76 76 76 76 76 77 77 77 78 78 79 80 82 83 84 85 86 87 87 86 84 82 81 81 82
88 86 85 85 84 84 83 83 82 82 81 81 79 79 78 78 78 77 77 76 76 77 77 78 78 78 78 77 76 76 75 74 74 74 74 73 73 73 73 72 72 72 71 71 71 71 71 71 71 71 71 71 71 71 71 71 70 71 71 72 73 73 74 74 74 74 74 74 75 75 76 77 78 79 80 82 83 84 84 84 84 82 81 81 81 81
87 86 85 85 84 84 84 83 82 81 80 80 78 77 77 76 76 76 75 75 75 75 76 76 76 76 76 75 74 74 73 72 72 72 71 71 71 71 70 70 70 70 69 69 68 68 68 68 68 68 69 69 69 69 69 69 68 69 69 70 70 71 71 72 72 72 72 72 73 73 74 74 75 76 78 79 80 81 81 82 81 81 80 80 81 80
87 86 86 85 85 84 84 83 82 81 80 79 77 76 75 75 74 74 74 74 74 74 74 74 74 74 74 73 73 72 71 70 70 69 69 69 69 69 68 68 68 67 67 66 66 66 66 66 66 66 67 67 67 67 67 67 66 66 67 68 68 69 69 69 70 70 70 70 71 71 72 72 73 74 75 77 78 79 79 79 79 79 79 80 80 79
87 86 85 85 85 84 84 83 82 80 79 78 76 75 74 73 73 72 72 72 72 73 73 73 73 72 72 71 71 70 69 68 67 67 67 67 67 66 66 66 65 65 64 64 64 63 63 64 64 64 65 65 65 65 65 65 65 65 65 66 66 67 67 67 68 68 68 68 69 69 70 70 71 72 73 74 75 76 77 77 77 78 78 79 79 78
87 86 85 85 85 84 83 82 81 80 78 77 75 74 73 72 71 71 70 70 70 71 72 71 71 70 70 69 68 68 67 66 66 65 65 65 65 64 64 64 63 63 62 62 62 62 61 62 62 62 63 63 63 63 63 63 63 63 64 64 65 65 65 65 65 66 66 66 67 67 68 68 69 70 71 72 73 74 74 75 76 76 77 78 78 77
86 85 85 84 84 83 83 81 80 78 77 76 74 73 71 70 70 69 69 68 68 69 69 69 69 68 67 67 66 65 65 64 64 63 63 63 63 62 62 61 61 61 61 60 60 60 60 60 60 60 61 61 61 62 62 62 62 62 62 62 62 63 63 63 63 64 64 64 65 65 66 66 67 68 69 70 71 71 72 73 74 75 76 77 77 76
85 84 84 83 82 82 81 80 79 77 75 74 72 71 70 69 68 67 67 66 66 66 67 67 67 66 66 65 64 63 63 63 62 61 61 61 61 60 60 60 59 59 59 59 59 58 58 58 58 58 59 59 60 60 60 60 60 60 60 60 60 61 61 61 61 62 62 63 63 63 64 64 65 66 67 68 69 70 71 72 73 74 75 76 76 75
83 82 82 81 81 80 79 78 77 75 73 72 70 69 68 67 66 66 65 64 64 64 64 65 65 64 64 63 63 62 61 61 60 59 59 59 59 59 58 58 57 57 57 57 57 57 56 56 56 56 56 57 58 58 58 58 58 58 58 58 58 59 59 59 59 60 60 61 61 61 62 62 63 64 65 66 67 68 69 71 72 73 74 74 75 74
81 80 79 79 78 78 77 76 75 73 71 69 68 67 66 65 64 64 63 62 62 62 62 62 62 62 62 62 61 60 59 58 57 57 57 57 57 57 57 56 56 55 55 55 55 55 55 54 54 54 54 55 56 56 56 56 56 56 56 56 56 56 57 57 57 58 58 59 59 59 60 60 61 62 63 64 65 67 68 69 70 72 72 73 73 73
78 77 77 76 75 75 75 74 73 71 69 67 66 65 64 63 62 61 61 60 60 60 60 60 60 60 60 60 60 59 57 56 55 54 55 55 56 56 55 55 54 54 54 54 53 53 52 52 52 52 52 53 53 53 53 53 53 53 53 54 54 54 54 55 55 55 56 56 57 57 58 59 59 60 61 63 64 65 66 68 69 70 71 71 72 72
75 74 74 73 73 72 72 71 70 68 66 65 63 62 61 61 60 59 58 58 58 58 57 57 57 57 57 58 58 57 55 53 53 53 53 54 55 55 54 53 52 51 52 52 51 51 50 50 50 50 50 51 51 51 51 51 51 51 50 51 51 51 51 52 53 53 54 54 55 55 56 57 58 59 60 61 63 64 65 66 67 68 69 70 70 70
72 71 71 70 70 69 69 68 68 66 64 62 61 60 59 58 58 57 56 56 55 55 55 55 55 55 55 55 55 55 53 52 51 51 52 53 53 53 52 51 50 50 50 50 50 49 48 48 47 48 48 48 48 48 48 48 48 48 48 48 48 49 49 50 51 51 52 52 53 54 55 55 56 58 59 60 61 62 64 65 66 67 68 68 69 69
69 68 68 68 67 66 66 65 65 63 62 60 59 58 57 56 55 54 54 53 53 53 52 52 52 53 53 53 53 53 51 50 49 50 50 51 52 51 50 49 48 48 48 48 47 47 46 45 45 45 46 46 46 46 45 45 45 45 45 46 46 47 47 48 49 49 50 51 51 52 53 54 55 56 57 58 59 61 62 63 64 65 66 67 68 68
67 66 66 65 65 64 63 62 62 61 59 58 56 55 54 54 53 52 52 51 51 50 50 50 50 51 51 51 51 51 49 48 48 48 49 49 50 50 48 47 46 46 46 46 45 44 43 43 43 43 43 43 43 43 43 43 43 43 43 44 44 45 46 46 47 47 48 49 50 51 52 53 53 55 56 57 58 59 61 62 63 64 65 66 66 67
66 65 64 63 63 61 60 59 59 58 57 55 54 53 52 51 51 50 50 49 49 48 48 48 48 49 49 49 49 49 48 46 46 46 47 48 48 48 46 45 44 44 44 43 43 42 41 41 41 41 41 41 41 41 41 41 41 41 42 42 42 43 43 44 45 45 46 47 48 49 50 51 52 53 54 55 57 58 59 60 62 63 64 64 65 66
65 64 63 62 61 60 58 57 56 55 54 53 52 51 50 49 49 48 48 47 47 47 47 47 47 47 47 47 47 46 45 45 44 45 45 46 46 46 44 43 42 42 42 41 41 40 39 39 39 39 39 39 39 39 39 39 39 39 40 40 40 41 41 42 43 44 45 46 47 48 49 50 51 52 53 54 56 57 58 59 60 61 62 63 64 65
63 62 62 61 59 58 56 55 54 53 52 51 50 49 48 48 47 46 46 45 45 45 45 45 45 45 46 45 45 44 43 43 43 43 44 44 44 44 42 41 40 40 39 39 38 38 38 38 38 38 38 38 38 37 37 37 37 37 38 38 39 40 40 41 42 43 44 45 46 47 48 49 50 51 52 53 54 56 57 58 59 60 61 62 63 64
62 61 60 59 58 56 55 53 52 51 50 49 48 48 47 46 45 45 44 44 43 43 43 43 44 44 43 43 42 42 41 41 41 41 42 42 42 41 40 38 38 37 37 37 37 37 36 36 37 37 36 36 36 36 35 35 35 36 36 37 38 39 40 41 42 43 44 45 46 46 47 48 49 50 51 52 54 55 56 57 58 59 60 61 62 63
60 59 58 57 56 54 53 51 50 49 48 47 47 46 45 45 44 43 42 42 42 42 42 42 42 41 41 41 40 40 39 39 39 40 40 40 40 39 37 36 36 36 36 36 36 35 35 36 35 35 35 35 34 34 34 34 34 34 35 36 37 38 39 40 41 42 43 44 45 46 47 47 48 50 51 52 53 54 55 56 57 58 59 60 61 62
58 57 56 55 54 52 51 49 48 47 46 46 45 45 44 43 42 41 41 40 40 40 40 40 39 39 39 38 38 37 37 37 37 38 38 38 38 37 35 34 34 34 35 35 35 35 35 35 34 34 34 33 33 33 32 33 33 34 35 36 37 38 38 39 40 41 42 43 44 45 46 47 48 49 50 51 52 53 54 55 56 57 58 59 60 60
56 54 53 53 51 50 49 47 46 45 44 44 43 43 42 41 40 40 39 38 38 38 38 38 37 37 36 36 35 35 35 35 35 35 36 36 35 35 34 33 33 34 34 34 34 34 34 34 34 33 33 32 32 32 32 32 33 33 34 35 36 37 38 39 40 41 42 43 44 45 46 46 47 48 49 50 51 52 53 54 55 56 57 58 58 59
54 52 51 50 49 48 47 45 44 43 42 42 41 41 40 39 39 38 37 37 36 36 36 36 35 35 34 34 33 32 32 32 33 33 34 34 34 33 33 33 33 33 33 34 34 34 34 33 33 32 32 31 31 31 31 31 32 33 34 35 36 37 38 39 40 41 42 43 43 44 45 46 47 48 49 50 51 52 53 54 54 55 56 56 57 58
52 50 49 48 47 46 45 43 42 41 41 40 39 39 38 37 37 36 35 35 34 34 34 34 33 33 32 31 30 30 30 30 30 31 32 32 32 32 32 32 32 33 33 33 33 33 33 32 32 31 31 30 30 30 30 31 31 32 33 35 36 37 38 39 40 41 41 42 43 44 45 46 46 47 48 49 50 51 52 52 53 54 55 55 56 57
50 48 47 46 45 44 43 42 41 40 39 38 38 37 37 36 35 34 33 33 32 32 32 31 31 30 29 29 28 27 27 28 29 30 31 31 32 32 32 32 32 32 32 33 32 32 32 31 31 31 30 30 29 29 29 30 31 32 33 35 36 37 38 38 39 40 41 42 43 43 44 45 46 47 48 48 49 50 51 51 52 53 54 55 56 57
48 46 45 44 43 42 41 40 39 38 37 37 36 35 35 34 33 32 32 31 30 30 30 29 29 28 27 26 26 26 26 26 28 29 30 31 31 31 31 31 32 32 32 32 32 31 31 30 30 29 29 29 28 28 29 29 30 32 33 35 35 36 37 38 39 40 41 41 42 43 44 45 45 46 47 48 48 49 50 50 51 52 53 54 55 56
46 45 43 42 41 40 39 38 38 37 36 35 34 34 33 32 31 31 30 29 29 28 28 27 27 26 25 25 25 25 25 26 28 29 30 30 31 31 31 31 31 31 31 31 31 30 30 29 29 28 28 28 27 27 28 29 30 32 33 34 35 36 37 38 38 39 40 41 42 43 44 44 45 46 46 47 47 48 49 50 50 51 52 53 54 55
44 43 42 41 39 39 38 37 36 35 34 33 33 32 31 30 30 29 28 27 27 26 26 25 25 24 24 24 24 24 25 26 28 29 30 30 30 30 30 30 30 30 30 30 30 29 28 28 27 27 27 26 26 26 27 28 30 32 33 34 35 36 36 37 38 39 40 41 41 42 43 44 44 45 45 46 47 47 48 49 50 51 52 53 53 54
42 41 40 39 38 37 36 35 35 34 33 32 31 30 29 29 28 27 26 26 25 25 24 24 23 23 23 23 23 24 25 26 28 28 29 29 29 29 29 29 29 29 29 29 28 28 27 26 26 25 25 25 25 26 27 28 30 32 33 34 35 35 36 37 38 38 39 40 41 41 42 43 43 44 44 45 46 46 47 48 49 50 51 52 52 53
40 39 38 37 36 35 35 34 33 32 31 30 29 28 27 26 26 25 25 24 24 23 23 22 22 22 22 22 23 24 25 26 27 28 28 28 28 28 28 28 28 28 28 28 27 26 25 25 24 24 24 24 25 25 27 28 30 32 33 34 34 35 35 36 37 38 39 39 40 41 41 42 42 43 44 44 45 46 46 47 48 49 50 51 51 52
38 37 37 36 35 34 33 32 31 30 29 28 27 26 25 25 24 23 23 23 22 22 21 21 21 21 21 22 22 23 25 26 26 27 27 27 27 26 26 26 26 26 26 26 26 25 24 24 23 23 23 24 24 25 27 29 31 32 33 33 34 34 35 36 37 37 38 38 39 40 40 41 41 42 43 43 44 45 46 46 47 48 49 50 51 51
36 36 35 34 33 32 31 30 29 28 27 26 25 24 24 23 23 22 22 21 21 21 21 20 20 20 21 21 22 23 24 24 25 25 25 25 25 25 25 25 25 25 25 25 25 24 23 23 23 23 23 23 24 26 28 29 31 32 32 33 33 34 34 35 36 36 37 37 38 38 39 40 40 41 42 42 43 44 45 46 46 47 48 49 50 50
35 34 33 33 32 31 30 28 28 26 25 24 24 23 23 22 22 21 21 20 20 20 20 20 20 20 20 21 21 22 23 23 23 24 23 23 23 23 23 24 24 24 24 24 24 23 23 22 22 22 23 24 25 27 28 30 31 31 32 32 32 33 34 34 35 35 36 36 37 37 38 39 39 40 41 41 42 43 44 45 46 47 47 48 49 50
33 33 32 31 30 29 28 27 26 25 24 23 23 22 21 21 21 20 20 20 19 19 19 19 19 19 19 20 20 21 21 22 22 22 22 22 22 22 22 23 23 23 23 23 23 23 22 22 22 22 23 24 25 27 28 29 30 30 31 31 31 32 32 33 33 34 34 35 35 36 37 37 38 39 40 41 41 42 43 44 45 46 47 48 49 49
32 31 30 29 28 27 26 25 24 23 22 22 21 21 20 20 20 19 19 19 18 18 18 18 18 18 19 19 19 20 20 20 21 21 21 21 21 21 22 22 22 22 22 22 22 22 22 21 22 22 23 24 26 27 28 28 29 29 29 29 30 30 31 32 32 33 33 34 34 35 36 36 37 38 39 40 41 41 42 43 44 45 46 47 48 49
30 29 29 28 26 26 25 24 23 22 21 20 20 19 19 19 18 18 18 18 18 17 17 17 17 17 18 18 19 19 19 19 20 20 20 20 21 21 21 21 21 21 21 21 21 21 21 21 22 22 23 24 25 26 27 27 27 27 27 28 28 29 30 31 31 32 32 33 33 34 35 36 37 37 38 39 40 41 41 42 44 45 46 47 48 48
29 28 27 26 25 24 23 22 21 20 19 19 18 18 18 17 17 17 17 17 17 17 17 17 17 17 17 18 18 18 18 19 19 19 20 20 20 20 20 20 20 20 20 21 20 21 21 21 22 22 23 24 24 25 25 25 25 25 26 26 27 28 29 30 30 30 31 32 32 33 34 35 36 37 37 38 39 40 41 42 43 44 45 46 47 48
28 27 25 24 23 23 22 21 20 19 18 18 17 17 17 17 17 16 16 16 16 16 16 16 16 17 17 17 17 18 18 18 18 19 19 19 19 19 19 19 20 20 20 20 20 20 21 21 22 22 22 23 23 24 24 24 24 24 25 26 27 28 28 29 29 29 30 31 32 33 34 34 35 36 37 38 39 40 41 42 43 44 45 46 46 47
26 25 24 23 22 21 20 20 19 18 18 17 16 16 16 16 16 16 16 16 16 16 16 16 16 16 17 17 17 17 18 18 18 18 18 19 19 19 19 19 19 19 20 20 20 20 20 21 21 21 22 22 22 22 23 23 23 24 25 26 26 27 27 28 28 29 29 30 31 32 33 34 35 36 37 38 39 39 40 41 42 43 44 45 46 47
25 24 23 22 21 20 19 19 18 18 17 16 16 16 16 15 16 15 16 16 16 16 16 16 16 16 16 17 17 17 18 18 18 18 18 18 18 18 19 19 19 19 19 19 20 20 20 20 21 21 21 21 22 22 22 23 23 24 25 25 26 27 27 27 28 28 29 30 31 32 32 33 34 35 37 37 38 39 40 41 42 43 44 45 46 47
24 23 22 21 20 19 18 18 17 17 16 16 15 15 15 15 15 15 15 16 16 16 16 16 16 16 16 17 17 17 17 17 18 18 18 18 18 18 18 18 18 19 19 19 19 20 20 20 20 20 21 21 21 22 22 23 23 24 25 25 26 26 26 27 27 28 28 29 30 31 32 33 34 35 36 37 38 38 39 40 41 42 43 44 45 46
23 22 21 20 19 18 18 17 17 16 16 15 15 15 15 15 15 15 15 15 16 16 16 16 16 16 16 16 16 17 17 17 17 17 17 17 17 17 18 18 18 18 18 18 19 19 19 19 19 20 20 21 21 21 22 23 23 24 24 25 25 25 26 26 27 27 28 29 30 31 32 32 33 34 35 36 37 38 38 39 40 41 41 42 43 45
21 20 20 19 18 17 17 17 16 16 15 15 15 15 15 15 15 15 15 15 15 15 15 15 15 15 15 15 16 16 16 16 16 17 17 17 17 17 17 17 17 17 17 18 18 18 18 19 19 19 20 20 21 21 22 22 23 23 24 24 25 25 25 26 27 27 28 29 30 30 31 32 32 33 34 35 36 37 37 38 39 39 40 41 42 44
20 19 19 18 17 17 16 16 15 15 15 15 15 15 15 15 15 14 15 15 14 14 14 14 14 14 14 14 14 15 15 15 15 15 16 16 16 16 16 17 17 17 17 17 17 18 18 18 19 19 19 20 20 21 21 22 22 23 23 24 24 25 25 26 27 27 28 29 29 30 31 31 32 33 34 35 35 36 37 38 38 39 39 41 42 43
19 18 17 17 16 16 15 15 14 14 14 14 14 14 14 14 14 14 14 14 13 13 13 13 13 13 13 13 13 13 13 14 14 14 14 15 15 15 16 16 16 16 16 17 17 17 18 18 18 19 19 19 20 20 21 21 22 22 23 23 24 24 25 26 27 27 28 29 29 30 31 31 32 33 34 35 36 37 37 38 39 39 40 40 41 42
Wind_Direction
296 296 294 293 293 292 290 289 288 287 286 285 284 283 282 282 281 280 280 279 278 277 277 276 275 275 274 274 273 272 272 271 271 271 270 270 270 269 269 269 268 268 268 268 267 267 267 266 266 266 265 264 264 263 263 262 261 261 260 259 259 258 257 256 255 254 253 253 254 254 255 256 256 256 256 256 256 256 255 255 254 254 254 254 253 253
296 295 295 294 293 292 291 290 289 288 287 286 285 284 283 282 281 280 280 279 278 278 277 276 275 275 274 274 273 272 272 272 271 271 270 270 270 270 269 269 269 268 268 268 267 267 267 267 266 265 265 264 264 263 262 262 261 260 260 259 258 257 256 256 254 253 252 252 252 252 253 253 254 254 254 255 255 255 255 255 254 254 254 253 253 253
296 296 295 294 293 293 292 291 290 289 288 287 286 284 283 282 281 280 280 279 278 277 277 276 275 275 274 274 273 273 272 272 271 271 271 270 270 270 270 269 269 269 268 268 267 267 267 266 266 265 265 264 263 263 262 261 260 260 259 258 257 257 256 255 254 253 252 251 251 251 251 251 252 252 253 253 253 254 254 254 254 254 253 253 252 252
296 296 295 294 294 293 293 292 291 290 289 288 286 285 284 283 281 280 279 279 278 277 277 276 276 275 274 274 274 273 273 272 272 271 271 271 270 270 270 269 269 269 268 268 267 267 267 266 266 265 264 264 263 262 261 260 260 259 258 257 257 256 255 255 254 253 252 251 250 250 250 250 250 251 251 251 252 252 253 253 253 253 253 252 251 251
296 296 295 295 295 294 293 292 291 290 289 288 287 286 284 283 282 281 280 279 278 277 277 276 276 275 275 274 274 274 273 273 272 272 271 271 271 270 270 269 269 268 268 268 267 267 267 266 265 265 264 263 263 262 261 260 259 258 257 257 256 255 255 254 253 252 251 250 249 249 249 249 249 249 249 250 250 251 251 252 253 253 252 251 250 249
297 296 296 296 295 294 293 292 291 290 289 288 287 286 285 284 283 281 280 279 278 278 277 276 276 275 275 275 274 274 273 273 273 272 272 271 271 270 270 270 269 269 268 268 267 267 266 266 265 264 264 263 262 261 260 259 258 257 257 256 255 255 254 253 253 252 251 250 249 248 248 247 247 248 248 248 249 249 250 251 251 252 251 250 249 248
297 297 297 297 296 295 294 293 291 290 289 288 287 286 285 284 283 282 281 280 279 278 277 276 276 275 275 275 274 274 274 273 273 273 272 272 271 270 270 270 269 269 268 268 267 267 266 265 265 264 263 262 261 261 259 259 258 257 256 255 255 254 254 253 252 251 251 250 249 248 247 246 246 246 246 247 247 248 249 250 250 250 250 249 248 248
299 298 298 297 297 295 294 293 292 290 289 288 287 286 285 284 283 282 281 280 279 278 277 276 276 275 275 275 274 274 274 273 273 273 272 272 271 271 270 270 269 269 268 268 267 266 266 265 264 264 263 262 261 260 259 258 257 256 255 255 254 254 253 252 252 251 250 249 248 247 246 246 245 245 245 245 246 246 247 248 248 249 248 248 247 247
300 300 299 298 297 296 295 293 292 290 289 288 287 286 285 284 283 282 281 280 279 278 277 276 275 275 275 275 274 274 273 273 273 272 272 271 271 271 270 270 269 269 268 267 267 266 265 265 264 263 262 261 260 259 258 257 256 255 255 254 253 253 252 252 251 250 250 249 248 247 246 245 244 244 244 244 244 245 246 246 247 247 247 246 246 246
301 300 300 299 297 296 295 293 292 291 290 289 287 286 285 284 283 281 280 280 278 277 276 275 275 274 274 274 274 273 273 273 272 272 272 271 271 270 270 269 269 268 268 267 267 266 265 264 263 262 262 261 260 259 258 257 256 255 254 253 253 252 251 251 250 249 249 248 247 246 246 245 244 243 243 243 243 244 244 244 245 245 245 245 245 245
301 301 300 299 297 296 295 294 292 291 290 289 288 287 285 284 283 281 280 279 278 277 276 275 274 274 274 273 273 273 273 272 272 271 271 271 270 270 269 269 269 268 268 267 266 265 264 263 262 262 261 260 259 258 257 256 255 254 253 252 252 251 251 250 250 249 248 247 247 246 245 244 243 243 242 242 242 242 242 243 243 243 244 244 244 244
302 301 300 299 297 296 295 294 293 292 291 289 288 287 286 284 283 281 280 278 277 276 275 275 274 274 273 273 273 272 272 272 271 271 270 270 269 269 269 269 268 268 267 267 266 265 264 263 262 261 260 259 259 258 257 256 254 253 252 252 251 250 250 250 249 248 248 247 246 245 245 244 243 242 242 241 241 241 241 241 241 242 242 242 243 243
302 301 300 299 297 296 295 294 293 292 291 290 289 287 286 284 283 281 280 278 277 275 275 274 274 273 272 272 272 271 271 271 270 270 269 269 269 268 268 268 267 267 267 266 265 264 263 262 261 260 259 259 258 257 256 255 254 253 252 251 251 250 250 249 249 248 247 246 246 245 244 243 243 242 241 240 240 240 240 240 240 240 240 241 242 242
302 301 300 299 297 296 295 294 293 292 291 290 289 288 286 285 283 281 280 278 276 275 274 273 273 272 272 271 271 270 270 269 269 269 268 268 268 268 267 267 267 266 266 265 264 264 263 262 261 260 259 258 257 256 256 255 254 253 252 251 250 250 249 249 248 247 247 246 245 244 244 243 242 241 241 240 239 239 239 239 239 239 239 240 240 240
301 301 300 298 297 296 295 294 293 292 291 290 289 288 286 285 283 281 280 278 276 275 274 273 272 272 271 270 270 269 268 268 268 268 268 268 267 267 266 266 266 266 265 265 264 264 263 262 261 260 259 258 257 256 255 255 254 253 252 251 250 250 249 248 247 247 246 245 245 244 243 242 242 241 240 239 239 238 238 238 237 238 238 238 239 239
302 301 299 298 297 296 295 294 293 293 292 291 290 288 287 285 283 281 280 278 276 275 273 272 272 271 270 270 269 268 268 267 268 268 267 267 266 266 266 265 265 265 265 265 264 264 263 262 261 260 259 258 257 256 256 255 254 253 252 251 250 249 249 248 247 246 246 245 244 243 243 242 241 240 240 239 238 238 237 237 237 237 237 237 237 237
302 301 300 298 297 296 295 294 294 293 292 291 290 288 287 285 283 282 280 278 276 275 273 272 271 270 269 269 268 268 267 267 267 267 266 266 265 265 265 265 265 265 265 264 264 263 263 262 261 260 259 258 257 257 256 255 254 253 252 251 250 249 249 248 247 246 246 245 244 243 242 241 240 240 239 238 238 237 237 236 236 236 236 236 236 236
302 301 299 298 297 296 295 294 294 293 292 291 290 288 287 285 283 281 280 278 276 275 273 272 271 269 269 268 268 267 267 266 266 265 265 265 264 264 264 265 265 265 264 264 264 264 263 262 261 260 259 258 257 256 256 255 254 253 252 251 251 250 249 248 247 246 245 244 243 242 241 240 240 239 238 237 237 236 236 236 236 236 235 235 235 235
302 301 299 298 297 296 295 294 294 293 292 291 290 288 287 285 283 281 279 278 276 274 273 271 270 269 268 267 267 267 266 265 265 264 264 264 264 264 264 265 265 264 264 264 264 263 263 262 261 260 259 258 258 257 256 255 254 253 252 251 250 249 248 247 246 245 245 244 243 242 241 240 239 238 237 237 236 236 235 235 235 235 235 235 235 234
302 301 300 298 297 296 295 295 294 293 292 291 290 288 286 285 283 281 279 277 275 274 272 270 269 268 267 266 266 266 265 265 264 263 263 263 264 264 264 264 264 264 264 264 264 264 263 262 261 260 259 258 258 257 256 255 254 252 251 250 249 247 246 246 245 244 244 243 242 241 240 239 238 237 237 236 236 235 235 234 234 234 234 234 234 233
303 302 300 299 298 297 296 295 294 293 292 291 289 288 286 284 282 281 279 277 275 273 271 269 268 267 266 265 265 265 264 264 263 263 263 263 263 264 264 264 264 264 264 264 264 263 263 262 261 260 259 258 257 256 255 254 252 251 250 248 247 246 245 244 244 243 242 242 241 240 239 238 238 237 236 235 235 234 234 234 233 233 233 233 233 233
304 303 301 299 298 297 296 295 294 293 292 291 289 287 286 284 282 280 278 276 274 272 270 269 267 266 265 264 264 264 264 263 263 262 262 262 263 263 264 264 264 264 264 264 264 263 262 261 260 259 258 257 256 254 253 252 251 249 248 247 246 245 244 243 243 242 241 241 240 239 238 237 236 236 235 234 234 234 233 233 233 232 232 232 232 232
305 304 302 300 299 298 297 296 294 293 292 290 289 287 285 284 282 280 278 276 274 272 270 268 267 265 265 264 264 264 264 263 263 262 262 262 262 263 264 264 264 264 264 264 263 263 262 260 258 257 256 255 254 253 252 250 249 248 247 246 245 244 243 242 241 240 239 238 238 237 236 236 235 234 234 233 233 232 232 232 231 231 231 231 231 231
305 304 302 301 300 299 297 296 295 293 292 290 289 287 285 284 282 280 278 276 274 272 270 268 267 266 265 264 264 264 264 263 262 262 262 262 263 263 264 264 264 264 264 263 262 261 260 258 257 256 254 253 252 251 250 249 248 247 246 244 243 242 241 240 239 238 237 237 236 235 235 234 234 233 232 232 232 231 231 231 230 230 230 230 230 230
305 304 302 301 300 299 298 297 295 294 292 291 289 288 286 284 282 280 278 276 274 272 270 268 267 266 265 265 264 264 263 263 262 262 262 262 263 263 264 264 264 263 263 262 261 260 258 257 255 254 253 252 251 250 249 248 246 245 244 243 241 240 239 238 237 236 236 235 235 234 233 233 232 232 231 230 230 230 230 230 229 229 229 229 229 229
305 303 302 301 300 299 298 297 296 294 293 291 290 288 287 285 283 281 279 277 275 273 270 269 267 266 266 265 264 264 263 262 262 262 262 262 263 263 264 263 263 262 261 260 259 258 256 255 254 253 252 251 250 249 247 246 244 243 242 240 239 238 238 237 236 236 235 234 234 233 232 232 231 230 230 229 229 229 229 229 228 228 228 228 228 228
304 303 302 301 300 300 299 298 296 295 294 292 291 289 288 286 284 282 280 278 275 273 271 270 268 267 266 265 264 264 263 262 262 262 262 263 263 263 263 263 261 260 259 258 257 256 255 254 252 251 250 249 248 247 245 244 242 241 239 238 238 237 236 236 235 234 234 233 233 232 231 230 230 229 229 228 228 228 228 228 227 227 227 227 227 227
304 303 302 301 301 300 299 298 297 296 294 293 292 290 289 287 285 283 281 279 277 274 272 270 269 268 267 265 265 264 263 263 263 263 263 263 263 262 262 261 259 258 257 256 255 254 253 252 251 250 249 248 246 244 243 242 240 239 238 237 236 236 235 234 234 233 232 232 231 231 230 230 229 228 228 227 227 227 227 227 227 227 227 226 226 226
304 304 303 302 301 300 300 299 298 296 295 294 292 291 290 288 286 284 282 280 277 275 273 272 270 269 267 266 265 265 264 264 264 263 263 262 262 261 260 258 257 256 255 254 253 252 252 251 250 249 248 246 245 243 242 240 239 238 237 236 235 234 233 233 232 232 231 231 230 230 229 229 228 228 227 227 226 226 226 226 226 226 226 226 226 226
305 304 303 302 301 301 300 299 298 297 296 294 293 291 290 288 286 285 282 280 278 276 274 272 271 269 268 267 266 265 264 264 263 262 262 261 260 259 257 256 255 254 253 253 252 252 251 251 250 249 247 246 244 242 240 239 238 236 235 235 234 233 232 232 231 231 230 230 229 229 228 228 227 227 226 226 226 226 226 225 225 225 225 225 225 225
305 304 303 303 302 301 300 300 299 297 296 295 293 292 290 288 287 285 283 281 278 277 275 273 271 270 269 267 266 265 263 263 261 260 259 258 257 256 255 254 253 253 252 252 252 251 251 250 250 249 248 246 244 242 240 238 236 235 235 234 233 232 232 231 231 230 230 229 229 228 228 227 227 226 226 225 225 225 225 225 224 224 224 224 224 223
305 305 304 303 302 302 301 300 299 298 296 295 293 292 290 289 287 285 283 281 279 277 275 273 271 270 268 266 264 263 261 259 258 257 256 255 255 254 254 253 252 252 252 251 251 251 251 250 249 249 247 246 244 241 239 237 236 235 234 233 233 232 231 231 230 230 229 229 228 228 227 227 226 226 225 225 225 224 224 224 223 223 223 223 223 222
305 305 304 304 303 302 301 300 299 298 297 295 294 292 291 289 287 286 283 281 279 277 275 273 271 270 268 265 263 260 258 256 255 255 254 254 253 253 253 253 252 252 252 252 252 251 251 250 250 249 248 246 244 241 239 237 236 235 234 233 233 232 231 230 230 229 229 228 228 227 227 226 226 225 225 224 224 223 223 223 222 222 222 222 222 221
306 305 305 304 303 302 302 301 300 299 297 296 294 293 291 290 288 286 284 282 279 277 275 273 271 269 267 264 262 259 257 255 254 253 253 253 253 253 253 253 252 252 253 253 253 252 252 251 250 249 248 246 243 241 238 237 236 235 234 233 233 231 231 230 230 229 229 228 228 227 227 226 226 225 225 224 223 223 222 222 222 221 221 221 221 221
306 305 305 304 304 303 302 301 300 299 298 297 295 294 292 290 288 286 284 282 280 277 275 272 270 268 266 263 260 258 255 254 253 253 253 252 253 253 253 253 253 254 254 254 254 254 253 252 250 249 247 245 243 240 238 236 235 235 234 233 232 232 231 230 229 229 229 228 227 227 227 226 226 225 224 224 223 222 222 221 221 221 221 220 220 220
306 306 305 305 304 303 303 302 301 300 298 297 296 294 292 290 288 286 283 281 279 277 274 272 269 266 264 261 259 256 255 254 253 253 253 253 253 254 254 255 255 255 255 256 255 255 254 252 250 248 246 244 241 238 237 235 234 234 233 233 232 231 231 230 230 229 229 228 228 227 227 226 225 225 224 223 223 222 221 221 220 220 220 220 219 219
306 306 305 305 304 304 303 302 301 300 298 297 295 294 291 289 287 285 282 280 278 276 273 271 268 265 262 260 258 256 255 254 254 254 254 255 255 255 256 256 256 256 256 256 256 255 253 251 249 247 244 242 239 237 235 234 234 233 233 232 232 231 231 231 230 229 229 229 228 227 227 226 225 225 224 223 222 221 221 220 220 219 219 219 219 218
307 306 306 305 304 304 303 302 301 300 298 296 295 293 290 288 285 283 281 279 277 275 272 270 268 264 262 260 258 257 256 256 256 256 256 256 257 257 257 257 256 256 256 255 255 253 252 250 247 245 242 239 237 235 233 233 233 233 232 232 232 231 231 230 230 230 229 229 228 227 227 226 225 224 223 222 222 221 220 219 219 219 218 218 218 218
307 306 306 306 305 304 304 302 301 299 298 296 294 292 289 287 285 283 280 278 276 274 272 270 267 265 263 261 259 258 258 257 257 257 257 257 257 257 256 255 255 254 254 253 253 252 250 248 245 242 240 237 235 234 233 232 232 232 232 232 231 231 231 231 230 230 229 229 228 227 227 226 225 224 223 222 221 220 219 219 218 218 217 217 217 217
307 307 306 306 305 305 304 303 301 300 298 296 294 292 290 288 286 283 281 279 276 274 272 270 268 266 264 262 260 259 259 258 258 258 257 257 256 255 254 253 253 252 252 251 251 249 248 246 243 240 237 235 234 233 233 232 232 232 232 232 231 231 231 231 230 230 229 228 228 227 226 225 224 224 222 221 220 220 219 218 218 217 217 216 216 215
307 307 307 307 306 305 304 303 301 300 298 296 295 293 291 289 287 284 282 279 277 275 272 270 268 266 264 262 261 260 259 258 258 257 256 255 254 253 252 251 251 251 250 250 249 248 245 243 240 238 235 234 233 233 233 233 233 232 232 232 232 231 231 230 230 229 228 228 227 226 225 225 223 223 222 220 220 219 218 217 217 216 216 215 215 215
308 308 307 307 307 306 305 303 302 300 298 296 295 293 291 289 287 284 282 279 277 274 272 270 268 266 264 262 261 260 259 257 256 255 254 253 252 251 251 250 250 249 249 248 247 245 243 240 238 236 234 233 233 232 233 233 232 232 232 231 231 230 230 229 229 228 227 226 226 225 224 223 222 221 220 219 218 218 217 216 216 215 215 215 214 214
309 309 309 308 307 307 305 304 302 300 298 296 294 292 290 288 286 283 281 278 276 274 272 269 267 265 263 262 260 259 258 256 255 254 253 252 251 251 250 249 249 247 246 245 243 242 240 238 236 234 233 232 232 232 232 232 231 231 230 230 229 229 229 228 227 226 226 225 224 223 223 222 221 220 219 218 217 216 216 215 215 215 214 214 214 213
310 310 310 309 308 307 306 304 302 300 298 296 293 291 289 288 285 283 280 278 276 273 271 269 266 264 262 260 259 258 256 255 254 253 252 251 250 249 248 247 246 245 244 242 240 239 237 235 234 232 231 231 230 230 230 230 229 228 228 228 227 227 227 227 226 225 224 223 222 222 221 220 220 219 218 217 216 215 215 214 214 214 214 213 213 213
311 311 311 310 309 308 306 304 302 300 298 296 293 292 289 287 285 282 280 277 274 272 270 268 265 263 261 260 258 257 255 255 253 252 251 250 249 248 247 245 244 242 241 239 238 236 234 233 232 231 230 229 228 228 227 227 226 225 224 224 224 225 224 224 223 222 222 221 221 220 219 219 218 217 217 216 215 214 214 214 213 213 213 212 212 212
313 313 312 311 310 308 307 305 303 301 299 296 294 292 290 287 284 282 279 276 274 271 269 267 265 263 261 260 258 257 256 254 253 252 251 250 248 247 245 244 242 241 239 237 236 235 233 232 230 229 228 227 226 225 224 223 222 222 222 222 222 221 221 221 220 219 219 219 219 219 218 217 217 216 215 215 214 213 213 213 213 213 212 212 212 212
315 315 314 313 311 310 308 306 304 302 299 297 295 292 290 287 284 281 279 276 273 271 269 268 267 265 263 262 260 259 257 256 255 253 251 250 248 246 245 243 242 240 239 237 236 234 233 231 230 228 226 225 224 223 222 220 220 219 219 219 219 219 219 218 218 217 217 216 216 216 216 216 215 215 214 214 213 213 213 212 213 212 212 212 212 212
317 316 315 314 313 312 310 308 305 303 300 297 295 293 290 288 284 282 279 278 276 274 273 272 270 269 267 265 264 262 261 258 257 255 253 251 249 247 245 243 242 240 239 238 236 234 233 231 229 227 225 224 223 222 220 219 218 218 217 217 217 216 216 215 215 214 214 214 214 214 214 214 214 213 213 212 212 212 212 212 212 212 212 212 212 212
319 318 317 316 315 313 311 309 307 304 301 299 296 294 291 289 287 285 284 283 281 280 279 277 275 274 272 270 268 266 264 262 260 258 256 253 250 248 246 243 241 239 238 236 235 233 232 230 229 227 225 223 222 221 220 218 217 216 216 215 215 214 213 212 212 212 212 212 212 212 212 212 212 212 212 211 211 211 211 210 210 211 211 211 211 212
320 319 318 318 316 315 312 310 308 305 303 300 298 296 294 293 292 291 289 288 287 285 284 282 280 277 275 273 271 269 267 265 263 260 258 255 253 250 247 244 242 239 237 235 233 231 229 228 226 225 224 222 220 219 218 217 216 215 214 214 213 212 211 210 210 210 209 209 209 209 209 209 209 209 209 209 209 209 209 209 209 209 209 210 210 211
321 321 320 319 317 315 313 311 309 307 305 303 301 300 299 298 297 296 294 292 291 289 287 285 282 279 277 275 273 271 269 267 265 262 260 257 254 251 248 245 242 240 237 234 232 230 227 225 224 223 222 221 219 217 216 215 214 214 213 212 211 210 209 209 208 208 208 208 207 207 207 207 207 207 207 207 207 207 207 207 206 206 207 207 208 209
Height
10233 10229 10226 10223 10221 10219 10217 10216 10213 10209 10205 10204 10203 10201 10198 10196 10193 10190 10188 10186 10183 10181 10180 10179 10178 10176 10176 10174 10174 10173 10173 10171 10171 10171 10171 10171 10171 10171 10171 10172 10173 10173 10174 10174 10174 10176 10177 10178 10180 10182 10184 10186 10188 10189 10191 10193 10195 10197 10200 10203 10205 10208 10211 10214 10217 10220 10223 10224 10226 10227 10228 10229 10231 10234 10237 10239 10243 10246 10250 10254 10258 10262 10266 10270 10274 10278
10220 10217 10214 10212 10209 10207 10204 10203 10201 10198 10194 10191 10191 10189 10188 10185 10183 10181 10178 10176 10173 10171 10169 10168 10168 10166 10166 10164 10164 10163 10163 10163 10162 10162 10163 10163 10163 10163 10163 10163 10164 10164 10165 10166 10166 10167 10168 10169 10171 10173 10175 10176 10178 10180 10182 10184 10186 10188 10190 10193 10195 10198 10200 10203 10207 10211 10214 10216 10218 10219 10220 10221 10223 10225 10228 10230 10233 10236 10240 10244 10249 10253 10257 10261 10265 10268
10209 10205 10203 10201 10199 10196 10193 10191 10189 10186 10183 10180 10178 10178 10176 10174 10173 10171 10169 10166 10163 10161 10159 10158 10157 10156 10156 10155 10154 10154 10154 10153 10153 10153 10154 10154 10154 10154 10154 10155 10156 10156 10156 10157 10158 10159 10159 10161 10163 10164 10166 10168 10169 10171 10173 10175 10177 10179 10181 10183 10185 10188 10190 10193 10197 10201 10204 10207 10209 10211 10212 10213 10215 10217 10219 10222 10224 10227 10230 10234 10239 10244 10248 10252 10256 10259
10198 10194 10191 10190 10188 10186 10183 10181 10178 10175 10173 10170 10168 10166 10164 10163 10162 10161 10159 10157 10154 10152 10150 10149 10148 10147 10146 10146 10146 10145 10144 10144 10144 10144 10145 10146 10146 10146 10146 10146 10147 10148 10148 10149 10149 10150 10151 10153 10154 10156 10157 10159 10160 10163 10164 10166 10168 10171 10173 10174 10176 10178 10181 10184 10188 10191 10194 10197 10199 10201 10203 10205 10208 10210 10211 10214 10216 10219 10222 10225 10229 10234 10239 10243 10248 10251
10187 10184 10181 10180 10178 10176 10173 10171 10168 10164 10162 10160 10158 10155 10154 10153 10151 10151 10149 10148 10146 10143 10141 10140 10139 10138 10138 10138 10138 10137 10136 10136 10136 10136 10137 10138 10138 10138 10138 10138 10139 10139 10140 10141 10141 10142 10143 10144 10146 10147 10149 10150 10152 10154 10156 10158 10160 10162 10164 10166 10168 10169 10172 10175 10178 10181 10185 10188 10191 10193 10196 10198 10201 10203 10204 10206 10209 10211 10214 10217 10221 10226 10231 10234 10239 10243
10177 10174 10172 10169 10168 10166 10163 10160 10158 10155 10152 10149 10148 10146 10144 10142 10141 10141 10139 10139 10137 10135 10133 10131 10130 10129 10129 10129 10129 10129 10128 10128 10128 10128 10129 10129 10129 10129 10129 10129 10130 10131 10132 10133 10133 10134 10135 10136 10138 10139 10140 10142 10143 10145 10147 10149 10151 10153 10155 10157 10159 10161 10163 10166 10169 10173 10176 10179 10182 10185 10188 10190 10193 10195 10198 10199 10202 10204 10207 10209 10213 10218 10222 10226 10230 10234
10167 10165 10163 10160 10158 10155 10153 10150 10148 10144 10141 10139 10138 10136 10135 10133 10132 10131 10130 10129 10128 10126 10124 10123 10122 10121 10120 10120 10120 10121 10120 10120 10120 10120 10120 10121 10121 10121 10121 10122 10123 10123 10124 10125 10126 10127 10128 10128 10129 10131 10132 10134 10135 10137 10139 10141 10143 10145 10147 10149 10150 10153 10155 10158 10161 10164 10167 10170 10174 10177 10179 10183 10185 10187 10189 10192 10194 10197 10199 10203 10206 10210 10214 10218 10221 10225
10157 10155 10153 10151 10148 10145 10143 10140 10137 10134 10131 10129 10128 10128 10126 10125 10123 10121 10121 10120 10119 10118 10116 10114 10113 10113 10112 10112 10112 10113 10113 10113 10113 10113 10113 10113 10113 10113 10114 10114 10114 10115 10116 10118 10118 10119 10120 10121 10122 10123 10124 10126 10127 10129 10131 10133 10135 10137 10139 10141 10143 10144 10147 10149 10153 10156 10159 10162 10165 10168 10171 10174 10178 10180 10182 10184 10187 10189 10193 10196 10199 10202 10206 10209 10213 10216
10148 10145 10143 10141 10138 10134 10131 10129 10127 10124 10121 10119 10119 10118 10118 10116 10114 10113 10112 10111 10109 10108 10107 10106 10105 10104 10104 10103 10104 10104 10104 10105 10105 10105 10105 10105 10105 10105 10106 10106 10107 10108 10109 10110 10111 10112 10113 10114 10114 10116 10117 10118 10119 10121 10123 10125 10128 10130 10131 10133 10135 10137 10139 10142 10144 10148 10151 10154 10157 10160 10163 10166 10169 10173 10175 10178 10180 10183 10186 10188 10191 10194 10198 10201 10205 10208
10139 10136 10133 10131 10128 10124 10120 10117 10116 10114 10113 10110 10109 10109 10108 10106 10106 10105 10104 10102 10100 10098 10097 10096 10096 10096 10096 10096 10096 10096 10097 10098 10098 10098 10098 10098 10098 10098 10098 10099 10099 10100 10101 10103 10104 10105 10106 10107 10108 10108 10109 10110 10112 10113 10116 10118 10120 10122 10124 10126 10128 10129 10132 10134 10137 10140 10143 10146 10149 10152 10155 10159 10162 10165 10168 10170 10173 10176 10178 10181 10184 10188 10191 10194 10197 10201
10129 10126 10123 10120 10117 10114 10111 10108 10105 10104 10103 10101 10099 10099 10098 10097 10096 10096 10096 10094 10091 10089 10088 10088 10088 10089 10088 10088 10088 10088 10089 10090 10090 10091 10090 10090 10090 10090 10091 10091 10092 10093 10094 10096 10096 10098 10099 10099 10100 10101 10102 10103 10104 10106 10108 10110 10113 10114 10116 10118 10120 10123 10124 10127 10130 10133 10136 10139 10141 10144 10148 10151 10154 10158 10160 10163 10166 10169 10172 10174 10178 10180 10183 10186 10189 10194
10119 10116 10114 10111 10108 10104 10101 10098 10096 10094 10093 10091 10090 10089 10089 10088 10087 10086 10086 10086 10084 10081 10079 10079 10079 10080 10081 10080 10080 10081 10081 10082 10083 10083 10083 10083 10083 10083 10084 10085 10086 10087 10088 10089 10089 10091 10091 10093 10093 10094 10095 10096 10098 10099 10101 10103 10105 10108 10109 10111 10114 10116 10118 10121 10123 10126 10129 10132 10134 10137 10141 10144 10147 10150 10153 10156 10159 10163 10165 10168 10171 10174 10176 10179 10183 10186
10111 10108 10104 10101 10098 10094 10091 10088 10086 10085 10084 10083 10081 10081 10080 10079 10078 10077 10077 10077 10076 10074 10071 10071 10071 10071 10072 10073 10073 10073 10073 10074 10075 10076 10077 10077 10077 10078 10078 10079 10080 10081 10081 10082 10083 10083 10084 10085 10086 10088 10089 10090 10091 10093 10094 10096 10098 10101 10103 10105 10108 10109 10112 10114 10117 10119 10123 10126 10128 10131 10135 10138 10140 10143 10147 10150 10153 10156 10159 10161 10164 10167 10170 10173 10176 10180
10103 10100 10096 10093 10089 10086 10082 10079 10078 10076 10075 10074 10073 10072 10071 10071 10069 10068 10068 10068 10067 10066 10064 10064 10063 10063 10064 10064 10066 10066 10066 10067 10068 10069 10070 10070 10070 10070 10071 10072 10073 10074 10074 10075 10076 10077 10078 10079 10080 10081 10083 10084 10085 10086 10088 10090 10092 10094 10097 10099 10101 10104 10106 10108 10111 10114 10116 10119 10121 10124 10128 10131 10133 10136 10140 10143 10146 10149 10152 10154 10158 10160 10163 10166 10170 10173
10096 10092 10088 10084 10081 10077 10073 10071 10069 10068 10068 10066 10065 10064 10063 10062 10061 10060 10059 10059 10058 10058 10057 10056 10056 10056 10056 10056 10057 10058 10059 10059 10061 10061 10062 10063 10063 10064 10064 10065 10066 10068 10068 10069 10069 10071 10072 10073 10074 10076 10077 10078 10079 10080 10082 10084 10086 10089 10091 10093 10096 10098 10100 10103 10105 10108 10110 10113 10115 10118 10121 10124 10127 10130 10133 10136 10139 10142 10145 10148 10151 10154 10156 10159 10163 10167
10088 10084 10080 10076 10073 10069 10066 10063 10061 10060 10059 10058 10057 10056 10054 10053 10053 10052 10051 10051 10051 10050 10049 10049 10049 10049 10048 10049 10049 10050 10051 10053 10055 10056 10056 10056 10056 10057 10058 10059 10060 10061 10063 10063 10064 10065 10066 10067 10069 10070 10071 10072 10073 10075 10077 10079 10081 10083 10086 10088 10090 10092 10094 10097 10099 10101 10104 10106 10109 10112 10115 10118 10121 10123 10126 10129 10132 10134 10138 10141 10144 10147 10150 10153 10157 10161
10082 10077 10073 10069 10065 10062 10058 10055 10053 10052 10051 10051 10049 10048 10047 10045 10044 10044 10044 10043 10043 10043 10042 10043 10043 10043 10041 10041 10041 10043 10045 10048 10049 10051 10051 10050 10050 10050 10051 10053 10055 10056 10057 10058 10058 10059 10061 10062 10063 10065 10066 10067 10068 10069 10071 10073 10076 10078 10080 10083 10084 10087 10089 10091 10094 10096 10098 10101 10103 10106 10109 10111 10114 10117 10119 10122 10125 10128 10131 10134 10137 10140 10143 10146 10150 10154
10075 10070 10065 10061 10058 10054 10051 10048 10046 10044 10044 10043 10042 10041 10039 10038 10037 10036 10036 10036 10036 10035 10036 10036 10037 10036 10035 10034 10034 10036 10039 10042 10044 10045 10044 10044 10043 10044 10046 10048 10050 10051 10051 10052 10053 10054 10056 10057 10058 10059 10061 10061 10063 10064 10066 10068 10071 10073 10075 10078 10080 10083 10084 10086 10088 10091 10093 10095 10098 10100 10103 10105 10108 10110 10113 10116 10118 10121 10124 10127 10130 10133 10137 10140 10144 10148
10068 10063 10058 10054 10051 10048 10045 10041 10039 10038 10037 10036 10035 10033 10032 10031 10030 10029 10029 10029 10029 10029 10030 10031 10030 10029 10029 10028 10028 10030 10033 10036 10039 10039 10038 10038 10038 10038 10040 10043 10045 10046 10046 10046 10048 10049 10051 10052 10053 10054 10056 10056 10058 10059 10062 10064 10066 10068 10071 10074 10076 10078 10079 10081 10083 10084 10087 10089 10091 10094 10096 10099 10101 10104 10106 10109 10112 10114 10118 10121 10124 10127 10130 10134 10138 10141
10060 10056 10051 10047 10044 10042 10039 10035 10033 10031 10030 10029 10028 10027 10025 10024 10023 10023 10022 10022 10023 10024 10025 10024 10023 10022 10023 10023 10023 10024 10028 10031 10033 10033 10033 10033 10032 10033 10035 10038 10040 10041 10041 10041 10043 10044 10046 10048 10049 10049 10051 10053 10054 10056 10058 10061 10063 10065 10066 10068 10069 10071 10073 10075 10077 10079 10081 10083 10086 10088 10090 10093 10095 10098 10100 10103 10106 10108 10111 10114 10118 10121 10124 10128 10131 10135
10053 10049 10044 10040 10038 10036 10033 10029 10027 10025 10024 10023 10022 10021 10019 10018 10017 10016 10016 10016 10017 10018 10018 10017 10016 10016 10017 10017 10018 10019 10023 10026 10028 10028 10028 10027 10027 10028 10031 10033 10035 10036 10036 10037 10038 10040 10042 10043 10044 10045 10046 10048 10049 10051 10053 10054 10056 10058 10060 10062 10064 10066 10068 10069 10072 10074 10076 10078 10080 10082 10084 10087 10089 10092 10094 10097 10099 10103 10105 10108 10112 10115 10118 10122 10125 10129
10044 10041 10037 10034 10031 10029 10026 10024 10021 10019 10018 10017 10016 10014 10013 10013 10011 10011 10010 10011 10012 10011 10011 10011 10010 10011 10011 10012 10013 10015 10018 10021 10022 10023 10023 10022 10022 10023 10026 10028 10030 10031 10032 10033 10034 10036 10037 10038 10039 10040 10041 10042 10044 10046 10047 10049 10051 10053 10055 10057 10058 10061 10063 10065 10067 10069 10071 10073 10074 10076 10079 10081 10083 10086 10088 10091 10094 10096 10099 10103 10106 10109 10113 10116 10119 10123
10037 10033 10030 10027 10024 10023 10021 10019 10016 10014 10013 10011 10010 10009 10008 10007 10006 10005 10005 10006 10006 10006 10005 10005 10005 10005 10006 10008 10009 10011 10013 10016 10017 10018 10018 10018 10017 10019 10021 10024 10026 10028 10028 10029 10029 10031 10032 10033 10034 10035 10036 10038 10039 10041 10043 10044 10046 10048 10050 10052 10054 10056 10058 10059 10061 10063 10065 10067 10069 10071 10073 10076 10078 10080 10083 10085 10088 10091 10094 10097 10100 10103 10107 10110 10113 10117
10029 10027 10024 10021 10018 10016 10015 10013 10011 10009 10007 10006 10004 10003 10002 10001 10001 10000 10000 10000 10000 10000 10000 10000 10000 10001 10002 10004 10005 10007 10009 10011 10013 10013 10013 10013 10013 10015 10018 10020 10022 10023 10023 10023 10025 10026 10028 10028 10029 10030 10031 10033 10034 10036 10038 10040 10042 10044 10046 10048 10049 10051 10053 10054 10056 10058 10059 10061 10063 10066 10068 10070 10073 10074 10077 10079 10083 10085 10088 10091 10094 10098 10101 10104 10108 10111
10024 10021 10018 10015 10013 10011 10009 10008 10006 10004 10003 10001 9999 9998 9998 9997 9996 9996 9996 9996 9996 9996 9995 9996 9996 9997 9998 10000 10001 10003 10005 10007 10008 10008 10008 10009 10009 10011 10014 10016 10018 10018 10018 10019 10020 10021 10022 10023 10024 10026 10027 10028 10030 10032 10034 10036 10038 10039 10041 10043 10044 10046 10047 10049 10051 10053 10054 10056 10058 10060 10063 10065 10067 10069 10072 10074 10077 10079 10083 10086 10089 10092 10095 10099 10102 10106
10020 10016 10013 10009 10007 10006 10004 10003 10001 9999 9998 9996 9995 9994 9993 9993 9992 9992 9992 9991 9991 9991 9992 9993 9993 9994 9994 9996 9998 9999 10001 10002 10003 10004 10004 10005 10006 10007 10009 10012 10013 10013 10014 10014 10015 10016 10018 10018 10019 10021 10023 10024 10026 10028 10030 10032 10034 10035 10036 10038 10039 10041 10043 10044 10046 10048 10049 10051 10053 10056 10058 10060 10062 10064 10067 10069 10072 10074 10077 10080 10083 10086 10089 10093 10097 10100
10014 10011 10008 10005 10003 10001 9999 9998 9997 9996 9994 9992 9991 9989 9989 9989 9988 9988 9988 9988 9988 9988 9989 9989 9989 9990 9991 9993 9994 9996 9997 9998 9999 9999 10001 10001 10002 10004 10006 10008 10008 10009 10009 10009 10011 10012 10013 10014 10015 10017 10019 10021 10023 10024 10026 10028 10029 10031 10032 10033 10035 10036 10038 10039 10041 10043 10044 10046 10049 10051 10053 10055 10057 10059 10062 10064 10067 10069 10072 10075 10078 10081 10084 10088 10091 10095
10009 10006 10003 10001 9999 9997 9995 9994 9993 9991 9990 9988 9987 9986 9985 9985 9985 9984 9984 9984 9984 9984 9985 9985 9986 9986 9988 9989 9991 9993 9994 9994 9995 9996 9997 9998 9999 10000 10001 10003 10004 10004 10004 10005 10006 10008 10008 10009 10011 10013 10015 10017 10019 10021 10022 10024 10025 10026 10028 10029 10031 10032 10033 10035 10036 10038 10040 10042 10044 10046 10048 10050 10053 10054 10057 10059 10062 10064 10067 10070 10073 10076 10079 10083 10087 10091
10004 10002 9999 9997 9994 9993 9991 9990 9989 9988 9986 9984 9983 9982 9981 9981 9981 9981 9980 9980 9981 9982 9982 9982 9983 9984 9985 9986 9988 9989 9991 9991 9992 9993 9993 9994 9994 9996 9997 9998 9999 9999 10000 10001 10002 10003 10004 10006 10008 10009 10011 10013 10015 10017 10018 10019 10021 10023 10024 10025 10026 10028 10029 10031 10032 10034 10036 10038 10039 10041 10044 10046 10048 10050 10053 10055 10058 10060 10063 10065 10068 10072 10075 10079 10083 10086
9999 9998 9995 9993 9991 9989 9988 9986 9985 9984 9983 9981 9980 9979 9978 9978 9977 9977 9977 9978 9978 9979 9978 9978 9979 9981 9982 9984 9986 9987 9988 9988 9988 9989 9989 9989 9990 9991 9993 9994 9994 9995 9996 9997 9998 9999 10001 10003 10004 10006 10008 10009 10011 10013 10014 10016 10018 10019 10020 10021 10022 10023 10024 10026 10028 10029 10031 10033 10035 10037 10039 10041 10044 10046 10048 10051 10053 10056 10058 10061 10064 10068 10071 10074 10078 10081
9995 9993 9991 9989 9988 9986 9984 9983 9981 9980 9979 9978 9976 9976 9974 9974 9974 9974 9974 9975 9975 9975 9975 9976 9976 9978 9979 9981 9983 9984 9984 9984 9984 9984 9984 9985 9986 9987 9988 9989 9990 9991 9992 9993 9994 9996 9997 9999 10001 10003 10004 10006 10008 10009 10011 10013 10014 10014 10016 10016 10018 10019 10021 10022 10024 10026 10027 10029 10031 10033 10035 10037 10039 10041 10044 10046 10049 10051 10054 10057 10060 10064 10067 10070 10073 10076
9991 9989 9988 9986 9984 9983 9981 9979 9978 9977 9976 9974 9973 9973 9971 9971 9971 9971 9971 9972 9972 9972 9972 9973 9974 9975 9976 9978 9979 9981 9981 9981 9980 9980 9981 9981 9982 9983 9984 9985 9986 9987 9988 9989 9991 9993 9994 9996 9998 9999 10001 10003 10004 10006 10008 10009 10009 10011 10011 10013 10014 10015 10017 10018 10020 10021 10023 10025 10028 10029 10031 10033 10035 10038 10039 10042 10044 10047 10050 10053 10056 10059 10063 10066 10069 10072
9988 9986 9984 9983 9981 9979 9978 9976 9975 9974 9973 9971 9971 9969 9969 9968 9968 9968 9968 9968 9969 9969 9969 9970 9971 9973 9973 9975 9976 9977 9977 9976 9976 9976 9977 9978 9979 9979 9981 9982 9983 9984 9984 9986 9988 9989 9991 9993 9994 9996 9998 9999 10001 10003 10004 10005 10006 10006 10008 10008 10010 10011 10013 10014 10016 10018 10019 10021 10023 10025 10027 10029 10031 10033 10036 10038 10041 10043 10046 10049 10053 10055 10058 10061 10064 10068
9984 9983 9981 9979 9978 9976 9974 9973 9972 9971 9970 9969 9968 9967 9966 9966 9966 9966 9966 9966 9966 9966 9967 9968 9969 9969 9971 9972 9973 9973 9973 9973 9973 9973 9973 9974 9976 9976 9978 9979 9979 9981 9982 9983 9984 9986 9988 9989 9991 9993 9994 9996 9998 9999 10001 10001 10002 10003 10003 10004 10006 10008 10009 10011 10013 10014 10016 10018 10019 10021 10023 10025 10028 10030 10033 10035 10038 10040 10043 10046 10049 10051 10054 10058 10061 10064
9981 9979 9978 9976 9974 9973 9972 9971 9969 9968 9967 9966 9965 9964 9964 9964 9963 9963 9963 9963 9963 9964 9964 9966 9966 9967 9968 9969 9969 9969 9969 9969 9969 9969 9971 9972 9973 9974 9975 9976 9977 9978 9979 9980 9981 9983 9985 9987 9989 9990 9991 9993 9994 9996 9997 9998 9998 9999 9999 10001 10003 10004 10006 10007 10009 10011 10012 10014 10016 10018 10019 10022 10024 10026 10029 10031 10034 10037 10039 10043 10045 10048 10051 10054 10058 10061
9978 9977 9975 9973 9972 9971 9969 9968 9966 9966 9964 9964 9963 9963 9962 9961 9961 9961 9961 9961 9961 9961 9962 9963 9964 9964 9966 9966 9966 9966 9966 9966 9966 9967 9968 9969 9971 9972 9973 9973 9974 9976 9976 9978 9979 9981 9983 9984 9986 9988 9989 9990 9991 9993 9993 9994 9994 9995 9996 9998 9999 10001 10002 10004 10005 10007 10009 10011 10013 10014 10016 10019 10021 10023 10026 10028 10031 10034 10036 10039 10043 10045 10048 10052 10054 10058
9976 9974 9973 9971 9969 9968 9966 9965 9964 9963 9962 9961 9961 9960 9959 9959 9959 9958 9958 9958 9959 9959 9959 9960 9961 9962 9963 9963 9963 9963 9963 9964 9964 9965 9966 9968 9969 9970 9971 9971 9972 9973 9974 9975 9976 9978 9980 9982 9983 9984 9986 9987 9988 9989 9989 9990 9991 9991 9993 9994 9996 9998 9999 10001 10002 10004 10006 10008 10009 10011 10013 10016 10018 10020 10023 10025 10028 10031 10033 10036 10039 10042 10045 10048 10051 10055
9973 9971 9969 9968 9967 9966 9964 9963 9962 9961 9960 9959 9958 9958 9957 9957 9956 9956 9956 9956 9956 9957 9958 9958 9959 9959 9960 9960 9960 9961 9961 9961 9962 9963 9964 9966 9967 9968 9969 9969 9970 9971 9972 9973 9974 9976 9978 9979 9981 9982 9983 9984 9985 9986 9986 9986 9987 9988 9989 9991 9993 9994 9996 9998 9999 10001 10003 10005 10007 10009 10011 10013 10015 10018 10020 10023 10025 10028 10030 10033 10036 10039 10042 10045 10048 10052
9971 9969 9967 9966 9964 9963 9962 9961 9959 9959 9958 9957 9956 9956 9955 9954 9954 9954 9954 9954 9954 9955 9956 9956 9957 9958 9958 9958 9958 9959 9959 9959 9961 9961 9963 9964 9964 9966 9966 9967 9968 9968 9969 9971 9972 9973 9974 9976 9978 9979 9980 9981 9981 9982 9983 9983 9984 9986 9987 9989 9990 9992 9993 9995 9996 9998 10001 10003 10004 10006 10008 10010 10013 10014 10017 10019 10022 10024 10027 10030 10033 10036 10039 10042 10045 10048
9968 9966 9965 9963 9962 9961 9959 9959 9958 9956 9956 9955 9954 9954 9953 9953 9953 9953 9953 9953 9953 9953 9954 9954 9955 9956 9956 9956 9956 9957 9958 9958 9959 9960 9961 9961 9963 9963 9964 9964 9965 9966 9967 9968 9969 9971 9972 9973 9974 9976 9977 9978 9978 9979 9979 9980 9981 9983 9984 9986 9988 9989 9991 9993 9994 9996 9998 10000 10001 10003 10006 10008 10010 10012 10014 10017 10019 10021 10024 10027 10030 10033 10036 10038 10041 10044
9966 9964 9963 9961 9960 9959 9958 9957 9956 9955 9954 9953 9953 9953 9952 9952 9951 9951 9951 9951 9951 9952 9952 9953 9953 9953 9954 9954 9954 9955 9956 9956 9957 9958 9958 9959 9960 9961 9961 9962 9963 9964 9964 9966 9967 9968 9969 9971 9972 9973 9974 9974 9975 9976 9977 9978 9979 9981 9983 9984 9986 9987 9989 9990 9991 9993 9996 9998 9999 10001 10003 10005 10008 10009 10012 10014 10016 10019 10022 10024 10027 10030 10033 10036 10039 10041
9963 9962 9961 9959 9958 9957 9956 9955 9954 9953 9953 9952 9951 9951 9951 9950 9950 9950 9950 9950 9950 9950 9951 9951 9951 9951 9952 9953 9953 9953 9954 9954 9955 9956 9956 9957 9958 9958 9959 9960 9961 9961 9963 9964 9964 9966 9967 9968 9969 9970 9971 9972 9973 9973 9974 9976 9978 9979 9981 9982 9983 9984 9986 9987 9989 9991 9993 9995 9997 9999 10001 10003 10005 10007 10009 10011 10014 10017 10019 10022 10024 10028 10030 10033 10036 10039
9961 9960 9959 9958 9956 9955 9954 9953 9953 9951 9951 9950 9949 9949 9949 9949 9949 9949 9949 9949 9949 9949 9949 9949 9949 9950 9950 9951 9951 9951 9952 9953 9953 9954 9954 9955 9956 9956 9957 9958 9959 9959 9961 9961 9963 9963 9964 9965 9966 9968 9968 9969 9970 9971 9973 9974 9976 9977 9978 9979 9981 9982 9983 9984 9987 9989 9991 9993 9994 9996 9998 10001 10003 10005 10007 10009 10012 10014 10017 10019 10022 10025 10028 10031 10033 10037
9959 9958 9957 9956 9955 9954 9953 9952 9951 9950 9949 9949 9948 9948 9948 9948 9948 9948 9948 9948 9948 9948 9948 9948 9948 9948 9948 9949 9949 9949 9950 9951 9951 9952 9953 9953 9953 9954 9955 9956 9956 9958 9958 9959 9960 9961 9962 9963 9964 9965 9966 9967 9968 9969 9971 9973 9974 9975 9976 9977 9978 9979 9981 9983 9985 9987 9989 9991 9993 9994 9996 9998 10001 10003 10005 10007 10009 10012 10014 10017 10019 10023 10026 10028 10032 10035
9958 9956 9956 9954 9953 9953 9951 9951 9949 9949 9948 9948 9947 9947 9946 9946 9946 9946 9946 9946 9946 9946 9946 9946 9946 9946 9947 9947 9948 9948 9948 9949 9949 9950 9951 9951 9952 9953 9953 9954 9954 9955 9956 9957 9958 9959 9960 9961 9962 9963 9964 9965 9966 9968 9969 9971 9971 9973 9974 9975 9976 9978 9979 9981 9983 9985 9987 9989 9991 9993 9994 9996 9998 10000 10003 10004 10007 10009 10012 10014 10018 10020 10023 10027 10030 10033
9956 9955 9954 9953 9952 9951 9950 9949 9949 9948 9948 9947 9946 9946 9946 9945 9945 9945 9945 9945 9945 9945 9944 9945 9945 9946 9946 9946 9946 9946 9947 9948 9948 9948 9949 9949 9950 9951 9951 9952 9953 9954 9954 9955 9956 9957 9958 9959 9960 9961 9963 9963 9964 9966 9967 9968 9969 9971 9972 9973 9974 9976 9977 9979 9981 9983 9985 9986 9988 9991 9993 9994 9996 9998 10001 10003 10005 10008 10010 10013 10015 10018 10021 10024 10028 10030
9955 9954 9953 9952 9951 9950 9949 9948 9948 9947 9946 9946 9946 9945 9944 9944 9944 9944 9944 9944 9944 9944 9944 9944 9944 9944 9944 9944 9945 9946 9946 9946 9947 9947 9948 9948 9949 9949 9950 9951 9951 9952 9953 9954 9954 9955 9956 9958 9958 9959 9961 9962 9963 9964 9965 9966 9968 9969 9969 9971 9972 9974 9975 9977 9979 9981 9983 9984 9986 9988 9990 9993 9994 9996 9999 10001 10003 10006 10008 10011 10013 10016 10019 10023 10025 10028
9954 9953 9951 9951 9950 9949 9948 9948 9947 9946 9946 9945 9944 9944 9944 9943 9943 9943 9943 9943 9943 9943 9943 9943 9943 9943 9944 9944 9944 9945 9945 9946 9946 9946 9946 9947 9948 9948 9949 9949 9950 9951 9951 9952 9953 9954 9955 9956 9957 9958 9959 9960 9961 9963 9963 9964 9966 9967 9968 9969 9971 9972 9974 9976 9978 9979 9981 9983 9984 9986 9988 9991 9993 9994 9997 9999 10001 10004 10006 10009 10012 10015 10018 10020 10023 10025
9953 9951 9951 9949 9949 9948 9948 9947 9946 9946 9945 9944 9944 9943 9943 9943 9943 9943 9943 9943 9943 9943 9943 9943 9943 9943 9943 9943 9944 9944 9944 9944 9945 9945 9946 9946 9946 9947 9948 9948 9949 9949 9950 9951 9952 9953 9954 9954 9956 9956 9958 9959 9959 9961 9962 9963 9964 9965 9966 9968 9969 9971 9973 9974 9976 9978 9979 9981 9983 9984 9987 9989 9991 9993 9996 9998 10000 10002 10004 10008 10010 10013 10016 10018 10021 10023
9951 9951 9950 9949 9948 9948 9947 9946 9946 9945 9944 9944 9943 9943 9943 9943 9943 9943 9942 9942 9942 9942 9942 9943 9943 9943 9943 9943 9943 9943 9943 9944 9944 9944 9945 9945 9946 9946 9947 9948 9948 9949 9949 9950 9951 9952 9953 9954 9954 9955 9956 9958 9958 9959 9961 9962 9963 9964 9965 9966 9968 9969 9971 9973 9974 9976 9978 9979 9981 9983 9985 9987 9989 9991 9994 9996 9998 10001 10003 10006 10008 10011 10013 10016 10018 10021
9951 9950 9949 9949 9948 9947 9946 9946 9945 9944 9944 9943 9943 9943 9943 9942 9942 9942 9942 9942 9941 9941 9941 9941 9942 9942 9942 9942 9942 9943 9943 9943 9943 9944 9944 9944 9945 9946 9946 9947 9948 9948 9949 9949 9950 9951 9952 9953 9953 9954 9955 9956 9958 9958 9959 9961 9962 9963 9964 9965 9967 9968 9969 9971 9973 9974 9976 9978 9980 9981 9984 9986 9988 9989 9992 9994 9996 9999 10001 10004 10006 10009 10011 10014 10016 10019